This is the latest recevied weather packets stored in our database for station/object KD4MBW. If no packets are shown the sender has not sent any weather packets the latest 10 day(s).
| Time | Temp. | Humidity | Pressure | Rain* | Wind** | Luminosity | Snow |
|---|---|---|---|---|---|---|---|
| 1787622729 | 27.78° C | 89% | 1016.5 hPa | 0 mm | - | 0 W/m² | - |
| 1787622425 | 27.78° C | 90% | 1016.2 hPa | 0 mm | - | 0 W/m² | - |
| 1787622120 | 27.78° C | 90% | 1016.2 hPa | 0 mm | - | 0 W/m² | - |
| 1787621815 | 27.78° C | 88% | 1016.1 hPa | 0 mm | - | 0 W/m² | - |
| 1787621514 | 27.78° C | 88% | 1016.1 hPa | 0 mm | - | 0 W/m² | - |
| 1787621211 | 28.33° C | 88% | 1015.9 hPa | 0 mm | - | 0 W/m² | - |
| 1787620907 | 28.33° C | 87% | 1015.8 hPa | 0 mm | - | 0 W/m² | - |
| 1787620601 | 28.33° C | 87% | 1015.3 hPa | 0 mm | - | 0 W/m² | - |
| 1787620298 | 28.33° C | 86% | 1015.2 hPa | 0 mm | - | 0 W/m² | - |
| 1787619993 | 28.33° C | 86% | 1015.1 hPa | 0 mm | - | 0 W/m² | - |
| 1787619687 | 28.89° C | 86% | 1015.1 hPa | 0 mm | - | 0 W/m² | - |
| 1787619383 | 28.89° C | 85% | 1015.2 hPa | 0 mm | - | 0 W/m² | - |
| 1787619082 | 29.44° C | 85% | 1015.2 hPa | 0 mm | - | 0 W/m² | - |
| 1787618777 | 29.44° C | 89% | 1015.3 hPa | 0 mm | - | 0 W/m² | - |
| 1787618475 | 29.44° C | 89% | 1015.5 hPa | 0 mm | - | 0 W/m² | - |
| 1787618170 | 29.44° C | 89% | 1015.6 hPa | 0 mm | - | 0 W/m² | - |
| 1787617866 | 30° C | 88% | 1015.4 hPa | 0 mm | - | 0 W/m² | - |
| 1787617561 | 30° C | 87% | 1015.5 hPa | 0 mm | - | 0 W/m² | - |
| 1787617260 | 30° C | 87% | 1015.6 hPa | 0 mm | - | 0 W/m² | - |
| 1787616972 | 30° C | 87% | 1015.5 hPa | 0 mm | - | 1 W/m² | - |
| 1787616655 | 30° C | 87% | 1015.6 hPa | 0 mm | - | 2 W/m² | - |
| 1787616354 | 30° C | 88% | 1015.4 hPa | 0 mm | - | 2 W/m² | - |
| 1787616051 | 30° C | 88% | 1015.3 hPa | 0 mm | - | 3 W/m² | - |
| 1787615747 | 29.44° C | 89% | 1015.5 hPa | 0 mm | - | 7 W/m² | - |
| 1787615447 | 30° C | 89% | 1015.6 hPa | 0 mm | - | 11 W/m² | - |
* Rain latest hour (hover to see other rain measurements)
** Current wind speed in m/s (hover to see current wind gust speed)